Location: Orzech
(50.4330°N, 18.9330°E)
Time: 21:02:53
(UTC+02:00)

ISS - Visible Passes

Search period start: 13 October 2024 00:00
Search period end: 23 October 2024 00:00
Orbit: 411 x 423 km, 51.6° (Epoch: 13 October)

Date Brightness Start Highest point End Pass type
(mag) Time Alt. Az. Time Alt. Az. Time Alt. Az.
16 Oct -0.7 06:25:00 10° SSE 06:26:28 12° SE 06:27:57 10° ESE visible
18 Oct -1.7 06:23:15 10° SSW 06:26:04 26° SE 06:28:54 10° E visible
19 Oct -1.2 05:35:28 10° S 05:37:47 18° SE 05:40:06 10° E visible
20 Oct -0.9 04:48:47 11° SSE 04:49:29 12° SE 04:50:45 10° ESE visible
20 Oct -3.0 06:22:23 10° SW 06:25:36 49° SSE 06:28:50 10° ENE visible
21 Oct -2.5 05:35:29 21° SSW 05:37:07 35° SSE 05:40:11 10° E visible
22 Oct -1.7 04:49:07 23° SE 04:49:07 23° SE 04:51:23 10° E visible
22 Oct -3.8 06:22:01 12° WSW 06:25:03 84° SSE 06:28:24 10° ENE visible
